| time (UTC) | temp F | wind direction | speed MPH | gust MPH | rain 1hr in | rain 24hr in | rain mn in | humidity % | barometer mb |
| 20260905190405 | 55 | 18 | 0.0 | 0.0 | 0.00 | 0.00 | 0.00 | 100 | |
| 20260905184432 | 55 | 19 | 0.0 | 0.0 | 0.00 | 0.00 | 0.00 | 100 | |
| 20260905182459 | 56 | 19 | 0.0 | 0.0 | 0.00 | 0.00 | 0.00 | 100 | |
| 20260905180526 | 56 | 19 | 0.0 | 0.0 | 0.00 | 0.00 | 0.00 | 100 | |
| 20260905174554 | 56 | 18 | 0.0 | 0.0 | 0.00 | 0.00 | 0.00 | 100 | |
| 20260905172725 | 57 | 6 | 0.0 | 0.0 | 0.00 | 0.00 | 0.00 | 100 | |
| 20260905171936 | 57 | 7 | 0.0 | 0.0 | 0.00 | 0.00 | 0.00 | 100 | |
| 20260905171134 | 57 | 4 | 0.0 | 0.0 | 0.00 | 0.00 | 0.00 | 100 | |
| 20260905170347 | 57 | 2 | 0.0 | 0.0 | 0.00 | 0.00 | 0.00 | 100 | |
| 20260905165601 | 57 | 4 | 0.0 | 0.0 | 0.00 | 0.00 | 0.00 | 100 | |
| 20260905164755 | 57 | 6 | 0.0 | 0.0 | 0.00 | 0.00 | 0.00 | 100 | |
| 20260905164009 | 57 | 5 | 0.0 | 0.0 | 0.00 | 0.00 | 0.00 | 100 | |
| 20260905163207 | 32 | 3 | 0.0 | 0.0 | 0.00 | 0.00 | 0.00 | 100 | |
| 20260905162421 | 58 | 7 | 0.0 | 0.0 | 0.00 | 0.00 | 0.00 | 100 | |
| 20260905161635 | 59 | 15 | 0.0 | 0.0 | 0.00 | 0.00 | 0.00 | 100 | |
| 20260905160833 | 59 | 11 | 0.0 | 0.0 | 0.00 | 0.00 | 0.00 | 100 | |
| 20260905160046 | 59 | 19 | 0.0 | 0.0 | 0.00 | 0.00 | 0.00 | 100 | |
| 20260905154456 | 60 | 15 | 0.0 | 0.0 | 0.00 | 0.00 | 0.00 | 100 | |
| 20260905153707 | 60 | 7 | 0.0 | 0.0 | 0.00 | 0.00 | 0.00 | 100 | |
| 20260905152904 | 60 | 4 | 0.0 | 0.0 | 0.00 | 0.00 | 0.00 | 100 | |
| 20260905152118 | 60 | 2 | 0.0 | 0.0 | 0.00 | 0.00 | 0.00 | 100 | |
| 20260905151331 | 61 | 11 | 0.0 | 0.0 | 0.00 | 0.00 | 0.00 | 100 | |
| 20260905150530 | 60 | 15 | 0.0 | 0.0 | 0.00 | 0.00 | 0.00 | 100 | |
| 20260905145744 | 59 | 4 | 0.0 | 0.0 | 0.00 | 0.00 | 0.00 | 100 | |
| 20260905144943 | 32 | 3 | 0.0 | 0.0 | 0.00 | 0.00 | 0.00 | 100 | |
| 20260905144158 | 59 | 7 | 0.0 | 0.0 | 0.00 | 0.00 | 0.00 | 100 | |
| 20260905143411 | 59 | 15 | 0.0 | 0.0 | 0.00 | 0.00 | 0.00 | 100 | |
| 20260905142608 | 61 | 12 | 0.0 | 0.0 | 0.00 | 0.00 | 0.00 | 100 | |
| 20260905141822 | 59 | 4 | 0.0 | 0.0 | 0.00 | 0.00 | 0.00 | 100 | |
| 20260905140234 | 60 | 15 | 0.0 | 0.0 | 0.00 | 0.00 | 0.00 | 100 | |
| 20260905135445 | 59 | 7 | 0.0 | 0.0 | 0.00 | 0.00 | 0.00 | 100 | |
| 20260905134642 | 60 | 4 | 0.0 | 0.0 | 0.00 | 0.00 | 0.00 | 100 | |
| 20260905133856 | 60 | 2 | 0.0 | 0.0 | 0.00 | 0.00 | 0.00 | 100 | |
| 20260905133108 | 57 | 4 | 0.0 | 0.0 | 0.00 | 0.00 | 0.00 | 100 | |
| 20260905132306 | 57 | 6 | 0.0 | 0.0 | 0.00 | 0.00 | 0.00 | 100 | |
| 20260905131520 | 57 | 5 | 0.0 | 0.0 | 0.00 | 0.00 | 0.00 | 100 | |
| 20260905125145 | 59 | 4 | 0.0 | 0.0 | 0.00 | 0.00 | 0.00 | 100 | |
| 20260905115629 | 57 | 2 | 0.0 | 0.0 | 0.00 | 0.00 | 0.00 | 100 | |
| 20260905114842 | 58 | 11 | 0.0 | 0.0 | 0.00 | 0.00 | 0.00 | 100 | |
| 20260905110119 | 57 | 12 | 0.0 | 0.0 | 0.00 | 0.00 | 0.00 | 100 | |
| 20260905105332 | 57 | 4 | 0.0 | 0.0 | 0.00 | 0.00 | 0.00 | 100 | |
| 20260905103745 | 56 | 15 | 0.0 | 0.0 | 0.00 | 0.00 | 0.00 | 100 | |
| 20260905103249 | 54 | 7 | 0.0 | 0.0 | 0.00 | 0.00 | 0.00 | 100 | |
| 20260905102958 | 54 | 7 | 0.0 | 0.0 | 0.00 | 0.00 | 0.00 | 100 | |
| 20260905102153 | 54 | 4 | 0.0 | 0.0 | 0.00 | 0.00 | 0.00 | 100 | |
| 20260905101406 | 54 | 1 | 0.0 | 0.0 | 0.00 | 0.00 | 0.00 | 100 | |
| 20260905100620 | 53 | 11 | 0.0 | 0.0 | 0.00 | 0.00 | 0.00 | 100 | |
| 20260905095819 | 53 | 15 | 0.0 | 0.0 | 0.00 | 0.00 | 0.00 | 100 | |
| 20260905095032 | 52 | 5 | 0.0 | 0.0 | 0.00 | 0.00 | 0.00 | 100 | |
| 20260905094231 | 32 | 3 | 0.0 | 0.0 | 0.00 | 0.00 | 0.00 | 100 | |
| 20260905093445 | 52 | 7 | 0.0 | 0.0 | 0.00 | 0.00 | 0.00 | 100 | |
| 20260905092659 | 53 | 4 | 0.0 | 0.0 | 0.00 | 0.00 | 0.00 | 100 | |
| 20260905091856 | 52 | 6 | 0.0 | 0.0 | 0.00 | 0.00 | 0.00 | 100 | |
| 20260905091109 | 51 | 5 | 0.0 | 0.0 | 0.00 | 0.00 | 0.00 | 100 | |
| 20260905085520 | 51 | 6 | 0.0 | 0.0 | 0.00 | 0.00 | 0.00 | 100 | |
| 20260905084732 | 50 | 15 | 0.0 | 0.0 | 0.00 | 0.00 | 0.00 | 100 | |
| 20260905083930 | 50 | 4 | 0.0 | 0.0 | 0.00 | 0.00 | 0.00 | 100 | |
| 20260905083143 | 50 | 2 | 0.0 | 0.0 | 0.00 | 0.00 | 0.00 | 100 | |
| 20260905082356 | 50 | 11 | 0.0 | 0.0 | 0.00 | 0.00 | 0.00 | 100 | |
| 20260905081555 | 50 | 15 | 0.0 | 0.0 | 0.00 | 0.00 | 0.00 | 100 | |
| 20260905080810 | 50 | 5 | 0.0 | 0.0 | 0.00 | 0.00 | 0.00 | 100 | |
| 20260905080008 | 32 | 3 | 0.0 | 0.0 | 0.00 | 0.00 | 0.00 | 100 | |
| 20260905075221 | 50 | 7 | 0.0 | 0.0 | 0.00 | 0.00 | 0.00 | 100 | |
| 20260905074434 | 50 | 15 | 0.0 | 0.0 | 0.00 | 0.00 | 0.00 | 100 | |
| 20260905073634 | 50 | 12 | 0.0 | 0.0 | 0.00 | 0.00 | 0.00 | 100 | |
| 20260905072847 | 50 | 5 | 0.0 | 0.0 | 0.00 | 0.00 | 0.00 | 100 | |
| 20260905071259 | 51 | 15 | 0.0 | 0.0 | 0.00 | 0.00 | 0.00 | 100 | |
| 20260905070511 | 51 | 7 | 0.0 | 0.0 | 0.00 | 0.00 | 0.00 | 100 | |
| 20260905065707 | 51 | 4 | 0.0 | 0.0 | 0.00 | 0.00 | 0.00 | 100 | |
| 20260905064921 | 51 | 1 | 0.0 | 0.0 | 0.00 | 0.00 | 0.00 | 100 | |
| 20260905064134 | 51 | 11 | 0.0 | 0.0 | 0.00 | 0.00 | 0.00 | 100 | |
| 20260905063334 | 51 | 15 | 0.0 | 0.0 | 0.00 | 0.00 | 0.00 | 100 | |
| 20260905062548 | 51 | 4 | 0.0 | 0.0 | 0.00 | 0.00 | 0.00 | 100 | |
| 20260905061747 | 32 | 3 | 0.0 | 0.0 | 0.00 | 0.00 | 0.00 | 100 | |
| 20260905061001 | 52 | 11 | 0.0 | 0.0 | 0.00 | 0.00 | 0.00 | 100 | |
| 20260905054927 | 52 | 7 | 0.0 | 0.0 | 0.00 | 0.00 | 0.00 | 100 | |
| 20260905051910 | 54 | 11 | 0.0 | 0.0 | 0.00 | 0.00 | 0.00 | 100 | |
| 20260905010604 | 56 | 18 | 0.0 | 0.0 | 0.00 | 0.00 | 0.00 | 100 | |
| 20260905004631 | 57 | 19 | 0.0 | 0.0 | 0.00 | 0.00 | 0.00 | 100 | |
| 20260905002659 | 59 | 19 | 0.0 | 0.0 | 0.00 | 0.00 | 0.00 | 100 | |
| 20260905000727 | 60 | 19 | 0.0 | 0.0 | 0.00 | 0.00 | 0.00 | 100 | |
| 20260904234754 | 63 | 7 | 0.0 | 0.0 | 0.00 | 0.00 | 0.00 | 100 | |
| 20260904232822 | 65 | 18 | 0.0 | 0.0 | 0.00 | 0.00 | 0.00 | 100 | |
| 20260904230850 | 65 | 19 | 0.0 | 0.0 | 0.00 | 0.00 | 0.00 | 100 | |
| 20260904224918 | 66 | 19 | 0.0 | 0.0 | 0.00 | 0.00 | 0.00 | 100 | |
| 20260904222946 | 66 | 19 | 0.0 | 0.0 | 0.00 | 0.00 | 0.00 | 100 | |
| 20260904221014 | 66 | 18 | 0.0 | 0.0 | 0.00 | 0.00 | 0.00 | 100 | |
| 20260904215042 | 67 | 18 | 0.0 | 0.0 | 0.00 | 0.00 | 0.00 | 100 | |
| 20260904213111 | 67 | 18 | 0.0 | 0.0 | 0.00 | 0.00 | 0.00 | 100 | |
| 20260904211139 | 67 | 19 | 0.0 | 0.0 | 0.00 | 0.00 | 0.00 | 100 | |
| 20260904205207 | 67 | 19 | 0.0 | 0.0 | 0.00 | 0.00 | 0.00 | 100 | |
| 20260904203235 | 66 | 18 | 0.0 | 0.0 | 0.00 | 0.00 | 0.00 | 100 | |
| 20260904201303 | 66 | 7 | 0.0 | 0.0 | 0.00 | 0.00 | 0.00 | 100 | |
| 20260904195334 | 66 | 13 | 0.0 | 0.0 | 0.00 | 0.00 | 0.00 | 100 | |
| 20260904193402 | 66 | 19 | 0.0 | 0.0 | 0.00 | 0.00 | 0.00 | 100 | |
| 20260904191430 | 66 | 19 | 0.0 | 0.0 | 0.00 | 0.00 | 0.00 | 100 |